Regional Weather Roundup
Issued by NWS

Home | Current Version | Previous Version | Text Only | Print | Product List | Glossary On
Versions: 1 2 3 4 5 6 7 8 9 10 11 12 13 14 15 16 17 18 19 20 21 22 23 24 25 26 27 28 29 30 31 32 33 34 35 36 37 38 39 40 41 42 43 44 45 46 47 48 49 50
000
ASUS43 KTOP 241459
RWRKS

WEATHER ROUNDUP FOR KANSAS
NATIONAL WEATHER SERVICE GOODLAND KS
1000 AM CDT SUN MAY 24 2015

NOTE:  "FAIR" INDICATES FEW OR NO CLOUDS BELOW 12,000 FEET WITH NO
SIGNIFICANT WEATHER AND/OR OBSTRUCTIONS TO VISIBILITY.

KSZ001>006-013>018-027>032-041>047-241600-
NORTHWEST KANSAS

CITY           SKY/WX    TMP DP  RH WIND       PRES   REMARKS
GOODLAND       CLOUDY    57  54  89 S3        29.87S
HAYS           CLOUDY    57  52  82 S5        29.89S
HILL CITY      CLOUDY    60  57  89 E5        29.88S
RUSSELL        CLOUDY    60  59  96 S10       29.87S
$$

KSZ061>065-074>080-084>089-241600-
SOUTHWEST KANSAS

CITY           SKY/WX    TMP DP  RH WIND       PRES   REMARKS
DODGE CITY     CLOUDY    59  57  93 SE9       29.89S
ELKHART          N/A     59  55  87 S3          N/A
GARDEN CITY    CLOUDY    59  56  89 S7        29.86S
GREAT BEND     CLOUDY    61  55  82 S8        29.90S
LIBERAL        CLOUDY    63  55  77 S9        29.88S
$$

KSZ066>073-081>083-090>101-241600-
SOUTHEAST KANSAS

CITY           SKY/WX    TMP DP  RH WIND       PRES   REMARKS
CHANUTE        LGT RAIN  64  63  96 S3        29.92R
COFFEYVILLE    LGT RAIN  63  62  97 CALM      29.92R FOG
HUTCHINSON     CLOUDY    64  59  83 SE8       29.90F
NEWTON         CLOUDY    61  55  82 S5        29.92R
PARSONS        LGT RAIN  64  63  96 W5        29.93S
WICHITA INTL   CLOUDY    63  60  90 SE7       29.90R
WICHITA JABRA  CLOUDY    63  60  90 SE7       29.90S
WINFIELD       CLOUDY    63  61  93 E8        29.92R
$$

KSZ007>012-019>026-033>040-048>060-102>105-241600-
NORTHEAST KANSAS

CITY           SKY/WX    TMP DP  RH WIND       PRES   REMARKS
CONCORDIA      CLOUDY    64  60  87 SW12      29.86F
EMPORIA        CLOUDY    63  61  93 S6        29.90R
LAWRENCE       PTSUNNY   68  62  81 S6        29.88S
MANHATTAN      CLOUDY    65  62  90 SW6       29.87R
OLATHE IND     CLOUDY    66  63  90 S13       29.91R
OLATHE EXE     CLOUDY    66  63  90 S8        29.89S
SALINA         CLOUDY    62  60  93 S7        29.89R
TOPEKA BILLARD PTSUNNY   69  62  78 SW6       29.87S
TOPEKA FORBES  CLOUDY    68  62  81 SW9       29.88R
$$


USA.gov is the U.S. government's official web portal to all federal, state and local government web resources and services.